LTCC

Details ICAO LTCC (DIY)
Name DIYARBAKIR
Region Turkey
Timezone Europe/Istanbul (UTC+3.0)
Plans Departing 61
Arriving 65
Stats Elevation 2,251 ft / 686 m (AMSL)
Location 37.893898° 40.201017°
Runways 1
Magnetic Variation 5.674° E
Sunrise 2018-05-23 02:04:48 UTC / 2018-05-23 05:04:48 Local
Sunset 2018-05-23 16:29:55 UTC / 2018-05-23 19:29:55 Local
Advertisement - Login to hide

Runways

ID Width Length Bearing (true) Bearing (mag) Surface Threshold Offset Overrun Length
16 148 ft / 45 m 11,663 ft / 3,555 m 162.66° 156.99° Concrete 0 ft / 0 m 507 ft / 155 m
34 148 ft / 45 m 11,663 ft / 3,555 m 342.67° 337.00° Concrete 0 ft / 0 m 495 ft / 151 m

Map

Weather


0- 5 10 15 20 25 30 35+ Temperature / ° C

Clouds and Precipitation
Forecast for 2018-05-23 06:00 UTC. Updated 11 minutes ago

Ground ~20,000 ft ~40,000 ft Winds

METAR

LTCC 230520Z 36004KT 320V050 CAVOK 23/12 Q1015 NOSIG RMK RWY16 01004KT 320V090

TAF

Not found

Frequencies

Recorded 122.42 MHz ATIS
Tower 122.10 MHz TWR
Approach 122.10 MHz APP
Ground 122.10 MHz GND
Tower 118.10 MHz TWR
Warning: Do not use this data for real-world aviation or navigation. No guarantee of current accuracy is given.